Time,TemperatureF,DewpointF,PressureIn,WindDirection,WindDirectionDegrees,WindSpeedMPH,WindSpeedGustMPH,Humidity,HourlyPrecipIn,Conditions,Clouds,dailyrainin,SoftwareType,DateUTC
2013-02-22 00:11:00,48.0,38.0,-100.00,North,-999,-999.0,-999.0,68,-99.99,,,0.00,,2013-02-22 08:11:00,
2013-02-22 00:21:00,48.0,38.0,-100.00,North,-999,-999.0,-999.0,68,-99.99,,,0.00,,2013-02-22 08:21:00,
2013-02-22 00:31:00,48.0,38.0,-100.00,North,-999,-999.0,-999.0,68,-99.99,,,0.00,,2013-02-22 08:31:00,
2013-02-22 00:41:00,48.0,38.0,-100.00,North,-999,-999.0,-999.0,68,-99.99,,,0.00,,2013-02-22 08:41:00,
2013-02-22 01:11:00,47.0,38.0,-100.00,North,-999,-999.0,-999.0,70,0.00,,,0.00,,2013-02-22 09:11:00,
2013-02-22 01:21:00,47.0,38.0,-100.00,North,-999,-999.0,-999.0,70,0.00,,,0.00,,2013-02-22 09:21:00,
2013-02-22 01:31:00,47.0,38.0,-100.00,North,-999,-999.0,-999.0,70,0.00,,,0.00,,2013-02-22 09:31:00,
2013-02-22 01:41:00,47.0,38.0,-100.00,North,-999,-999.0,-999.0,70,0.00,,,0.00,,2013-02-22 09:41:00,
2013-02-22 02:11:00,46.0,39.0,-100.00,North,-999,-999.0,-999.0,75,0.00,,,-99.99,,2013-02-22 10:11:00,
2013-02-22 02:21:00,46.0,39.0,-100.00,North,-999,-999.0,-999.0,75,0.00,,,-99.99,,2013-02-22 10:21:00,
2013-02-22 02:31:00,46.0,39.0,-100.00,North,-999,-999.0,-999.0,75,0.00,,,-99.99,,2013-02-22 10:31:00,
2013-02-22 02:42:00,46.0,39.0,-100.00,North,-999,-999.0,-999.0,75,0.00,,,-99.99,,2013-02-22 10:42:00,
2013-02-22 03:11:00,46.0,40.0,-100.00,North,-999,-999.0,-999.0,79,0.00,,,0.00,,2013-02-22 11:11:00,
2013-02-22 03:21:00,46.0,40.0,-100.00,North,-999,-999.0,-999.0,79,0.00,,,0.00,,2013-02-22 11:21:00,
2013-02-22 03:32:00,46.0,40.0,-100.00,North,-999,-999.0,-999.0,79,0.00,,,0.00,,2013-02-22 11:32:00,
2013-02-22 03:42:00,46.0,40.0,-100.00,North,-999,-999.0,-999.0,79,0.00,,,0.00,,2013-02-22 11:42:00,
2013-02-22 04:11:00,46.0,41.0,-100.00,North,-999,-999.0,-999.0,82,0.00,,,0.00,,2013-02-22 12:11:00,
2013-02-22 04:21:00,46.0,41.0,-100.00,North,-999,-999.0,-999.0,82,0.00,,,0.00,,2013-02-22 12:21:00,
2013-02-22 04:32:00,46.0,41.0,-100.00,North,-999,-999.0,-999.0,82,0.00,,,0.00,,2013-02-22 12:32:00,
2013-02-22 04:42:00,46.0,41.0,-100.00,North,-999,-999.0,-999.0,82,0.00,,,0.00,,2013-02-22 12:42:00,
2013-02-22 05:11:00,45.0,41.0,-100.00,North,-999,-999.0,-999.0,84,0.00,,,0.00,,2013-02-22 13:11:00,
2013-02-22 05:22:00,45.0,41.0,-100.00,North,-999,-999.0,-999.0,84,0.00,,,0.00,,2013-02-22 13:22:00,
2013-02-22 05:31:00,45.0,41.0,-100.00,North,-999,-999.0,-999.0,84,0.00,,,0.00,,2013-02-22 13:31:00,
2013-02-22 05:41:00,45.0,41.0,-100.00,North,-999,-999.0,-999.0,84,0.00,,,0.00,,2013-02-22 13:41:00,
2013-02-22 06:11:00,45.0,41.0,-100.00,North,-999,-999.0,-999.0,85,0.00,,,0.00,,2013-02-22 14:11:00,
2013-02-22 06:21:00,45.0,41.0,-100.00,North,-999,-999.0,-999.0,85,0.00,,,0.00,,2013-02-22 14:21:00,
2013-02-22 06:32:00,45.0,41.0,-100.00,North,-999,-999.0,-999.0,85,0.00,,,0.00,,2013-02-22 14:32:00,
2013-02-22 06:41:00,45.0,41.0,-100.00,North,-999,-999.0,-999.0,85,0.00,,,0.00,,2013-02-22 14:41:00,
2013-02-22 07:11:00,45.0,41.0,-100.00,North,-999,-999.0,-999.0,86,0.00,,,0.00,,2013-02-22 15:11:00,
2013-02-22 07:21:00,45.0,41.0,-100.00,North,-999,-999.0,-999.0,86,0.00,,,0.00,,2013-02-22 15:21:00,
2013-02-22 07:32:00,45.0,41.0,-100.00,North,-999,-999.0,-999.0,86,0.00,,,0.00,,2013-02-22 15:32:00,
2013-02-22 07:41:00,45.0,41.0,-100.00,North,-999,-999.0,-999.0,86,0.00,,,0.00,,2013-02-22 15:41:00,
2013-02-22 08:12:00,46.0,42.0,-100.00,North,-999,-999.0,-999.0,85,0.00,,,0.00,,2013-02-22 16:12:00,
2013-02-22 08:21:00,46.0,42.0,-100.00,North,-999,-999.0,-999.0,85,0.00,,,0.00,,2013-02-22 16:21:00,
2013-02-22 08:31:00,46.0,42.0,-100.00,North,-999,-999.0,-999.0,85,0.00,,,0.00,,2013-02-22 16:31:00,
2013-02-22 08:41:00,46.0,42.0,-100.00,North,-999,-999.0,-999.0,85,0.00,,,0.00,,2013-02-22 16:41:00,
2013-02-22 09:11:00,48.0,43.0,-100.00,North,-999,-999.0,-999.0,80,0.00,,,0.00,,2013-02-22 17:11:00,
2013-02-22 09:21:00,48.0,43.0,-100.00,North,-999,-999.0,-999.0,80,0.00,,,0.00,,2013-02-22 17:21:00,
2013-02-22 09:31:00,48.0,43.0,-100.00,North,-999,-999.0,-999.0,80,0.00,,,0.00,,2013-02-22 17:31:00,
2013-02-22 09:41:00,48.0,43.0,-100.00,North,-999,-999.0,-999.0,80,0.00,,,0.00,,2013-02-22 17:41:00,
2013-02-22 10:12:00,52.0,42.0,-100.00,North,-999,-999.0,-999.0,67,0.00,,,0.00,,2013-02-22 18:12:00,
2013-02-22 10:22:00,52.0,42.0,-100.00,North,-999,-999.0,-999.0,67,0.00,,,0.00,,2013-02-22 18:22:00,
2013-02-22 10:32:00,52.0,42.0,-100.00,North,-999,-999.0,-999.0,67,0.00,,,0.00,,2013-02-22 18:32:00,
2013-02-22 10:42:00,52.0,42.0,-100.00,North,-999,-999.0,-999.0,67,0.00,,,0.00,,2013-02-22 18:42:00,
2013-02-22 12:31:00,57.0,42.0,-100.00,North,-999,-999.0,-999.0,57,0.00,,,0.00,,2013-02-22 20:31:00,
2013-02-22 12:41:00,57.0,42.0,-100.00,North,-999,-999.0,-999.0,57,0.00,,,0.00,,2013-02-22 20:41:00,
2013-02-22 13:21:00,55.0,40.0,-100.00,North,-999,-999.0,-999.0,57,0.00,,,0.00,,2013-02-22 21:21:00,
2013-02-22 13:31:00,55.0,40.0,-100.00,North,-999,-999.0,-999.0,57,0.00,,,0.00,,2013-02-22 21:31:00,
2013-02-22 13:42:00,55.0,40.0,-100.00,North,-999,-999.0,-999.0,57,0.00,,,0.00,,2013-02-22 21:42:00,
2013-02-22 14:11:00,57.0,37.0,-100.00,North,-999,-999.0,-999.0,47,0.00,,,0.00,,2013-02-22 22:11:00,
2013-02-22 14:21:00,57.0,37.0,-100.00,North,-999,-999.0,-999.0,47,0.00,,,0.00,,2013-02-22 22:21:00,
2013-02-22 14:31:00,57.0,37.0,-100.00,North,-999,-999.0,-999.0,47,0.00,,,0.00,,2013-02-22 22:31:00,
2013-02-22 14:41:00,57.0,37.0,-100.00,North,-999,-999.0,-999.0,47,0.00,,,0.00,,2013-02-22 22:41:00,
2013-02-22 15:11:00,54.0,41.0,-100.00,North,-999,-999.0,-999.0,61,0.00,,,0.00,,2013-02-22 23:11:00,
2013-02-22 15:21:00,54.0,41.0,-100.00,North,-999,-999.0,-999.0,61,0.00,,,0.00,,2013-02-22 23:21:00,
2013-02-22 15:31:00,54.0,41.0,-100.00,North,-999,-999.0,-999.0,61,0.00,,,0.00,,2013-02-22 23:31:00,
2013-02-22 15:41:00,54.0,41.0,-100.00,North,-999,-999.0,-999.0,61,0.00,,,0.00,,2013-02-22 23:41:00,
2013-02-22 16:11:00,52.0,42.0,-100.00,North,-999,-999.0,-999.0,69,0.00,,,0.00,,2013-02-23 00:11:00,
2013-02-22 16:21:00,52.0,42.0,-100.00,North,-999,-999.0,-999.0,69,0.00,,,0.00,,2013-02-23 00:21:00,
2013-02-22 16:31:00,52.0,42.0,-100.00,North,-999,-999.0,-999.0,69,0.00,,,0.00,,2013-02-23 00:31:00,
2013-02-22 16:41:00,52.0,42.0,-100.00,North,-999,-999.0,-999.0,69,0.00,,,0.00,,2013-02-23 00:41:00,
2013-02-22 17:11:00,52.0,43.0,-100.00,North,-999,-999.0,-999.0,73,0.00,,,0.00,,2013-02-23 01:11:00,
2013-02-22 17:21:00,52.0,43.0,-100.00,North,-999,-999.0,-999.0,73,0.00,,,0.00,,2013-02-23 01:21:00,
2013-02-22 17:31:00,52.0,43.0,-100.00,North,-999,-999.0,-999.0,73,0.00,,,0.00,,2013-02-23 01:31:00,
2013-02-22 17:41:00,52.0,43.0,-100.00,North,-999,-999.0,-999.0,73,0.00,,,0.00,,2013-02-23 01:41:00,
2013-02-22 18:11:00,50.0,43.0,-100.00,North,-999,-999.0,-999.0,77,0.00,,,-99.99,,2013-02-23 02:11:00,
2013-02-22 18:21:00,50.0,43.0,-100.00,North,-999,-999.0,-999.0,77,0.00,,,-99.99,,2013-02-23 02:21:00,
2013-02-22 18:31:00,50.0,43.0,-100.00,North,-999,-999.0,-999.0,77,0.00,,,-99.99,,2013-02-23 02:31:00,
2013-02-22 18:41:00,50.0,43.0,-100.00,North,-999,-999.0,-999.0,77,0.00,,,-99.99,,2013-02-23 02:41:00,
2013-02-22 19:11:00,49.0,43.0,-100.00,North,-999,-999.0,-999.0,80,0.00,,,0.00,,2013-02-23 03:11:00,
2013-02-22 19:21:00,49.0,43.0,-100.00,North,-999,-999.0,-999.0,80,0.00,,,0.00,,2013-02-23 03:21:00,
2013-02-22 19:31:00,49.0,43.0,-100.00,North,-999,-999.0,-999.0,80,0.00,,,0.00,,2013-02-23 03:31:00,
2013-02-22 19:41:00,49.0,43.0,-100.00,North,-999,-999.0,-999.0,80,0.00,,,0.00,,2013-02-23 03:41:00,
2013-02-22 20:11:00,49.0,43.0,-100.00,North,-999,-999.0,-999.0,79,0.00,,,-99.99,,2013-02-23 04:11:00,
2013-02-22 20:21:00,49.0,43.0,-100.00,North,-999,-999.0,-999.0,79,0.00,,,-99.99,,2013-02-23 04:21:00,
2013-02-22 20:31:00,49.0,43.0,-100.00,North,-999,-999.0,-999.0,79,0.00,,,-99.99,,2013-02-23 04:31:00,
2013-02-22 20:41:00,49.0,43.0,-100.00,North,-999,-999.0,-999.0,79,0.00,,,-99.99,,2013-02-23 04:41:00,
2013-02-22 21:12:00,50.0,43.0,-100.00,North,-999,-999.0,-999.0,77,0.00,,,-99.99,,2013-02-23 05:12:00,
2013-02-22 21:22:00,50.0,43.0,-100.00,North,-999,-999.0,-999.0,77,0.00,,,-99.99,,2013-02-23 05:22:00,
2013-02-22 21:32:00,50.0,43.0,-100.00,North,-999,-999.0,-999.0,77,0.00,,,-99.99,,2013-02-23 05:32:00,
2013-02-22 21:41:00,50.0,43.0,-100.00,North,-999,-999.0,-999.0,77,0.00,,,-99.99,,2013-02-23 05:41:00,
2013-02-22 22:11:00,49.0,44.0,-100.00,North,-999,-999.0,-999.0,82,0.00,,,0.00,,2013-02-23 06:11:00,
2013-02-22 22:22:00,49.0,44.0,-100.00,North,-999,-999.0,-999.0,82,0.00,,,0.00,,2013-02-23 06:22:00,
2013-02-22 22:31:00,49.0,44.0,-100.00,North,-999,-999.0,-999.0,82,0.00,,,0.00,,2013-02-23 06:31:00,
2013-02-22 22:41:00,49.0,44.0,-100.00,North,-999,-999.0,-999.0,82,0.00,,,0.00,,2013-02-23 06:41:00,
2013-02-22 23:11:00,49.0,43.0,-100.00,North,-999,-999.0,-999.0,80,0.00,,,-99.99,,2013-02-23 07:11:00,
2013-02-22 23:21:00,49.0,43.0,-100.00,North,-999,-999.0,-999.0,80,0.00,,,-99.99,,2013-02-23 07:21:00,
2013-02-22 23:31:00,49.0,43.0,-100.00,North,-999,-999.0,-999.0,80,0.00,,,-99.99,,2013-02-23 07:31:00,
2013-02-22 23:41:00,49.0,43.0,-100.00,North,-999,-999.0,-999.0,80,0.00,,,-99.99,,2013-02-23 07:41:00,